Overview Statistics Trail Chart Weather Telemetry Raw packets
 

This is the latest recevied weather packets stored in our database for station/object VK4TW-13. If no packets are shown the sender has not sent any weather packets the latest 10 day(s).

<< 20 21 22 23 24 25 26 >>
Time Temp. Humidity Pressure Rain* Wind** Luminosity Snow
1788386249 19.44° C 100% 1023 hPa 0 mm - - -
1788386169 19.44° C 100% 1023 hPa 0 mm - - -
1788385567 18.89° C 100% 1022.8 hPa 0 mm - - -
1788384967 17.78° C 100% 1022.7 hPa 0 mm - - -
1788384366 17.22° C 100% 1022.6 hPa 0 mm - - -
1788383766 16.67° C 100% 1022.4 hPa 0 mm - - -
1788383165 16.11° C 100% 1022.4 hPa 0 mm - - -
1788382569 15.56° C 100% 1022.2 hPa 0 mm - - -
1788381963 15.56° C 100% 1022.1 hPa 0 mm - - -
1788381362 15° C 100% 1021.8 hPa 0 mm - - -
1788380761 15° C 100% 1021.8 hPa 0 mm - - -
1788380161 15° C 100% 1021.7 hPa 0 mm - - -
1788379558 15° C 100% 1021.7 hPa 0 mm - - -
1788378958 15° C 100% 1021.6 hPa 0 mm - - -
1788378360 15.56° C 100% 1021.5 hPa 0 mm - - -
1788377756 15.56° C 100% 1021.3 hPa 0 mm - - -
1788376555 15.56° C 100% 1021.1 hPa 0 mm - - -
1788375953 15.56° C 100% 1021.1 hPa 0 mm - - -
1788375353 15.56° C 100% 1021 hPa 0 mm - - -
1788374752 15.56° C 100% 1020.9 hPa 0 mm - - -
1788374150 15.56° C 100% 1020.9 hPa 0 mm - - -
1788373550 15.56° C 100% 1020.9 hPa 0 mm - - -
1788372949 15.56° C 100% 1020.7 hPa 0 mm - - -
1788372348 15.56° C 100% 1020.7 hPa 0 mm - - -
1788371748 15.56° C 100% 1020.8 hPa 0 mm - - -

* Rain since midnight (hover to see other rain measurements)
** Current wind speed in m/s (hover to see current wind gust speed)